EXS55RC EGGD-GMAD

Flight info

Callsign EXS55RC
Flight time 3h 26m
Altitude 39000
Route EXMOR N92 DAWLY N864 BHD DCT SALCO DCT ERWAN DCT BALDA DCT ABUPI DCT DIGAL DCT DMT DCT GAIOS DCT TAKAV DCT ESS UR724 AGALI
Aircraft B738/M-SDE2E3FGHIRWXY/LB1

Departure

Time 2026-05-07 13:45
Airport Bristol Airport (EGGD)

Arrival

Time 2026-05-07 17:11
Airport Al Massira Airport (GMAD)
Time Latitude Longitude Altitude Speed Heading
2026-05-07 13:11 51.38537 -2.71609 611 ft 0 kts 358°
2026-05-07 13:35 51.38531 -2.71609 611 ft 4 kts 358°
2026-05-07 13:35 51.38509 -2.71607 614 ft 3 kts 357°
2026-05-07 13:35 51.38487 -2.71598 621 ft 4 kts 304°
2026-05-07 13:35 51.38481 -2.71569 622 ft 4 kts 266°
2026-05-07 13:36 51.38480 -2.71606 617 ft 4 kts 266°
2026-05-07 13:36 51.38480 -2.71611 622 ft 3 kts 266°
2026-05-07 13:38 51.38479 -2.71613 622 ft 1 kts 258°
2026-05-07 13:38 51.38455 -2.71665 609 ft 9 kts 221°
2026-05-07 13:38 51.38434 -2.71768 607 ft 12 kts 267°
2026-05-07 13:39 51.38432 -2.71912 605 ft 13 kts 269°
2026-05-07 13:39 51.38431 -2.72070 604 ft 16 kts 266°
2026-05-07 13:39 51.38422 -2.72247 607 ft 16 kts 267°
2026-05-07 13:39 51.38417 -2.72417 610 ft 15 kts 266°
2026-05-07 13:40 51.38410 -2.72588 623 ft 17 kts 266°
2026-05-07 13:40 51.38402 -2.72797 609 ft 23 kts 266°
2026-05-07 13:40 51.38394 -2.73000 603 ft 0 kts 266°
2026-05-07 13:41 51.38394 -2.73001 603 ft 1 kts 266°
2026-05-07 13:41 51.38391 -2.73075 610 ft 8 kts 266°
2026-05-07 13:41 51.38388 -2.73162 607 ft 7 kts 266°
2026-05-07 13:42 51.38388 -2.73164 607 ft 0 kts 266°
2026-05-07 13:43 51.38388 -2.73165 607 ft 2 kts 266°
2026-05-07 13:43 51.38385 -2.73217 609 ft 5 kts 259°
2026-05-07 13:43 51.38365 -2.73290 618 ft 9 kts 232°
2026-05-07 13:43 51.38306 -2.73338 621 ft 11 kts 187°
2026-05-07 13:44 51.38234 -2.73301 623 ft 11 kts 138°
2026-05-07 13:44 51.38219 -2.73182 631 ft 13 kts 88°
2026-05-07 13:44 51.38239 -2.72651 638 ft 89 kts 86°
2026-05-07 13:44 51.38290 -2.71219 621 ft 165 kts 89°
2026-05-07 13:45 51.38354 -2.69264 1352 ft 182 kts 88°
2026-05-07 13:45 51.38508 -2.67139 2213 ft 199 kts 83°
2026-05-07 13:45 51.38795 -2.64959 3296 ft 204 kts 77°
2026-05-07 13:45 51.39072 -2.62610 3844 ft 230 kts 93°
2026-05-07 13:46 51.38966 -2.59950 4340 ft 259 kts 94°
2026-05-07 13:46 51.38926 -2.56990 5333 ft 268 kts 97°
2026-05-07 13:46 51.38362 -2.54091 6052 ft 290 kts 119°
2026-05-07 13:46 51.37163 -2.51383 5994 ft 294 kts 136°
2026-05-07 13:47 51.35546 -2.49556 5982 ft 277 kts 157°
2026-05-07 13:47 51.33736 -2.48852 5992 ft 263 kts 178°
2026-05-07 13:47 51.31946 -2.49186 5994 ft 258 kts 196°
2026-05-07 13:47 51.30329 -2.50418 6174 ft 260 kts 214°
2026-05-07 13:48 51.29003 -2.52440 6831 ft 267 kts 232°
2026-05-07 13:48 51.28141 -2.55043 7719 ft 268 kts 249°
2026-05-07 13:48 51.27816 -2.57965 8434 ft 274 kts 266°
2026-05-07 13:48 51.27868 -2.61008 9327 ft 275 kts 270°
2026-05-07 13:49 51.28006 -2.64071 10093 ft 279 kts 271°
2026-05-07 13:49 51.28158 -2.67245 10453 ft 298 kts 270°
2026-05-07 13:49 51.27884 -2.70597 10630 ft 316 kts 244°
2026-05-07 13:49 51.26524 -2.73408 10913 ft 330 kts 215°
2026-05-07 13:50 51.24520 -2.75159 11562 ft 336 kts 202°
2026-05-07 13:50 51.22322 -2.76460 12257 ft 339 kts 198°
2026-05-07 13:50 51.20056 -2.77607 13022 ft 342 kts 197°
2026-05-07 13:50 51.17768 -2.78724 13756 ft 346 kts 197°
2026-05-07 13:51 51.15453 -2.79866 14349 ft 351 kts 197°
2026-05-07 13:51 51.13112 -2.81044 14993 ft 354 kts 197°
2026-05-07 13:51 51.10761 -2.82249 15653 ft 357 kts 198°
2026-05-07 13:51 51.08395 -2.83479 16283 ft 359 kts 198°
2026-05-07 13:52 51.06008 -2.84730 16932 ft 362 kts 198°
2026-05-07 13:52 51.03598 -2.85999 17538 ft 366 kts 199°
2026-05-07 13:52 51.01170 -2.87282 18165 ft 369 kts 199°
2026-05-07 13:52 50.98758 -2.88557 18716 ft 372 kts 199°
2026-05-07 13:53 50.96288 -2.89863 19240 ft 376 kts 199°
2026-05-07 13:53 50.93796 -2.91179 19744 ft 379 kts 199°
2026-05-07 13:53 50.91285 -2.92505 20292 ft 381 kts 199°
2026-05-07 13:53 50.88762 -2.93835 20828 ft 384 kts 199°
2026-05-07 13:54 50.86215 -2.95176 21315 ft 387 kts 199°
2026-05-07 13:54 50.83644 -2.96528 21797 ft 391 kts 199°
2026-05-07 13:54 50.81060 -2.97886 22337 ft 392 kts 199°
2026-05-07 13:54 50.78497 -2.99231 22849 ft 395 kts 198°
2026-05-07 13:55 50.75879 -3.00602 23282 ft 399 kts 199°
2026-05-07 13:55 50.73237 -3.01986 23722 ft 401 kts 199°
2026-05-07 13:55 50.70580 -3.03375 24135 ft 403 kts 199°
2026-05-07 13:55 50.67911 -3.04769 24529 ft 406 kts 199°
2026-05-07 13:56 50.65220 -3.06173 24888 ft 409 kts 199°
2026-05-07 13:56 50.62512 -3.07583 25281 ft 410 kts 199°
2026-05-07 13:56 50.59794 -3.08998 25653 ft 413 kts 198°
2026-05-07 13:56 50.57063 -3.10417 26000 ft 415 kts 199°
2026-05-07 13:57 50.54347 -3.11827 26350 ft 418 kts 199°
2026-05-07 13:57 50.51579 -3.13262 26712 ft 420 kts 198°
2026-05-07 13:57 50.48801 -3.14700 27051 ft 422 kts 199°
2026-05-07 13:57 50.46007 -3.16145 27383 ft 424 kts 199°
2026-05-07 13:58 50.43195 -3.17598 27713 ft 426 kts 198°
2026-05-07 13:58 50.40372 -3.19055 28032 ft 428 kts 199°
2026-05-07 13:58 50.37537 -3.20515 28345 ft 430 kts 199°
2026-05-07 13:58 50.34685 -3.21983 28665 ft 432 kts 198°
2026-05-07 13:59 50.31862 -3.23434 28993 ft 433 kts 198°
2026-05-07 13:59 50.28994 -3.24907 29333 ft 434 kts 198°
2026-05-07 13:59 50.26119 -3.26381 29679 ft 435 kts 198°
2026-05-07 13:59 50.23250 -3.27849 30116 ft 433 kts 198°
2026-05-07 14:00 50.20390 -3.29310 30507 ft 431 kts 198°
2026-05-07 14:00 50.17546 -3.30760 30866 ft 430 kts 198°
2026-05-07 14:00 50.14701 -3.32209 31175 ft 429 kts 198°
2026-05-07 14:00 50.11862 -3.33654 31488 ft 429 kts 198°
2026-05-07 14:01 50.09034 -3.35093 31833 ft 427 kts 198°
2026-05-07 14:01 50.06210 -3.36531 32171 ft 426 kts 200°
2026-05-07 14:01 50.05469 -3.36931 32255 ft 426 kts 200°
2026-05-07 14:01 50.03399 -3.38125 32481 ft 426 kts 201°
2026-05-07 14:02 50.00618 -3.39691 32803 ft 425 kts 199°
2026-05-07 14:02 49.97799 -3.41096 33051 ft 427 kts 198°
2026-05-07 14:02 49.94941 -3.42456 33018 ft 431 kts 198°
2026-05-07 14:03 49.89232 -3.45209 33009 ft 427 kts 198°
2026-05-07 14:03 49.83655 -3.47967 33019 ft 422 kts 198°
2026-05-07 14:04 49.78067 -3.50795 33021 ft 423 kts 198°
2026-05-07 14:04 49.72462 -3.53601 33019 ft 423 kts 198°
2026-05-07 14:05 49.66833 -3.56301 33012 ft 424 kts 197°
2026-05-07 14:05 49.61230 -3.58955 33013 ft 424 kts 197°
2026-05-07 14:06 49.55586 -3.61635 33040 ft 426 kts 197°
2026-05-07 14:06 49.52750 -3.62984 33264 ft 427 kts 197°
2026-05-07 14:06 49.49925 -3.64328 33636 ft 424 kts 197°
2026-05-07 14:06 49.47115 -3.65664 34025 ft 421 kts 197°
2026-05-07 14:07 49.44321 -3.66991 34330 ft 419 kts 197°
2026-05-07 14:07 49.41537 -3.68311 34548 ft 419 kts 197°
2026-05-07 14:07 49.38781 -3.69617 34678 ft 421 kts 197°
2026-05-07 14:07 49.36105 -3.70880 34554 ft 430 kts 197°
2026-05-07 14:08 49.32573 -3.72520 35009 ft 423 kts 197°
2026-05-07 14:08 49.29778 -3.73853 35421 ft 418 kts 199°
2026-05-07 14:09 49.27030 -3.75336 35566 ft 420 kts 200°
2026-05-07 14:09 49.21453 -3.78058 35791 ft 424 kts 197°
2026-05-07 14:09 49.18625 -3.79318 36007 ft 424 kts 197°
2026-05-07 14:10 49.15776 -3.80587 35983 ft 427 kts 197°
2026-05-07 14:10 49.10098 -3.83165 35984 ft 424 kts 197°
2026-05-07 14:11 49.04478 -3.85766 35991 ft 420 kts 197°
2026-05-07 14:11 48.98899 -3.88364 35982 ft 418 kts 197°
2026-05-07 14:12 48.93383 -3.90932 35988 ft 417 kts 197°
2026-05-07 14:12 48.87841 -3.93506 35987 ft 417 kts 197°
2026-05-07 14:13 48.82284 -3.96080 35985 ft 418 kts 197°
2026-05-07 14:13 48.78867 -3.97659 35984 ft 419 kts 197°
2026-05-07 14:14 48.75099 -3.99398 35980 ft 421 kts 197°
2026-05-07 14:14 48.69488 -4.01983 35975 ft 423 kts 197°
2026-05-07 14:15 48.64245 -4.04377 35994 ft 424 kts 197°
2026-05-07 14:15 48.58590 -4.06961 35998 ft 426 kts 197°
2026-05-07 14:16 48.52952 -4.09541 35993 ft 426 kts 197°
2026-05-07 14:16 48.47275 -4.12134 35992 ft 427 kts 197°
2026-05-07 14:17 48.41595 -4.14721 35989 ft 427 kts 197°
2026-05-07 14:17 48.35920 -4.17299 35983 ft 426 kts 197°
2026-05-07 14:18 48.30289 -4.19851 35989 ft 425 kts 197°
2026-05-07 14:18 48.24635 -4.22407 35993 ft 424 kts 197°
2026-05-07 14:19 48.18986 -4.24955 35990 ft 423 kts 197°
2026-05-07 14:19 48.13350 -4.27492 35994 ft 422 kts 197°
2026-05-07 14:20 48.07724 -4.30018 35989 ft 422 kts 197°
2026-05-07 14:20 48.02149 -4.32516 35994 ft 421 kts 197°
2026-05-07 14:21 47.96543 -4.35021 35997 ft 420 kts 197°
2026-05-07 14:21 47.90935 -4.37523 35986 ft 420 kts 197°
2026-05-07 14:22 47.85331 -4.40017 35994 ft 420 kts 197°
2026-05-07 14:22 47.79764 -4.42488 35998 ft 421 kts 197°
2026-05-07 14:23 47.74150 -4.44976 35998 ft 421 kts 197°
2026-05-07 14:23 47.68528 -4.47460 35994 ft 422 kts 197°
2026-05-07 14:24 47.62897 -4.49944 36003 ft 422 kts 197°
2026-05-07 14:24 47.57297 -4.52408 36001 ft 423 kts 197°
2026-05-07 14:25 47.51647 -4.54888 36001 ft 424 kts 197°
2026-05-07 14:25 47.45988 -4.57367 35997 ft 424 kts 197°
2026-05-07 14:26 47.40324 -4.59843 36004 ft 425 kts 197°
2026-05-07 14:26 47.34692 -4.62299 36002 ft 425 kts 197°
2026-05-07 14:27 47.29017 -4.64768 36000 ft 425 kts 197°
2026-05-07 14:27 47.23342 -4.67232 35997 ft 425 kts 197°
2026-05-07 14:28 47.17666 -4.69690 36001 ft 425 kts 197°
2026-05-07 14:28 47.12027 -4.72128 36002 ft 425 kts 197°
2026-05-07 14:29 47.06351 -4.74576 35994 ft 425 kts 197°
2026-05-07 14:29 47.00680 -4.77016 36006 ft 425 kts 197°
2026-05-07 14:30 46.95967 -4.79040 36004 ft 425 kts 197°
2026-05-07 14:30 46.89379 -4.81863 36003 ft 424 kts 197°
2026-05-07 14:31 46.83714 -4.84284 35995 ft 424 kts 197°
2026-05-07 14:31 46.78046 -4.86702 36004 ft 424 kts 197°
2026-05-07 14:32 46.73334 -4.88708 36002 ft 425 kts 197°
2026-05-07 14:32 46.67655 -4.91121 36001 ft 425 kts 197°
2026-05-07 14:33 46.61048 -4.93921 35997 ft 426 kts 197°
2026-05-07 14:33 46.56315 -4.95923 36002 ft 426 kts 197°
2026-05-07 14:34 46.50614 -4.98330 35997 ft 427 kts 197°
2026-05-07 14:34 46.44903 -5.00735 35982 ft 428 kts 197°
2026-05-07 14:35 46.38257 -5.03528 35996 ft 428 kts 197°
2026-05-07 14:35 46.33459 -5.05540 35986 ft 429 kts 197°
2026-05-07 14:36 46.27768 -5.07923 35999 ft 429 kts 197°
2026-05-07 14:36 46.22031 -5.10319 35991 ft 429 kts 197°
2026-05-07 14:37 46.16291 -5.12712 35987 ft 429 kts 197°
2026-05-07 14:37 46.07678 -5.16295 35984 ft 430 kts 197°
2026-05-07 14:38 46.01969 -5.18666 35982 ft 430 kts 198°
2026-05-07 14:38 45.96213 -5.21050 35982 ft 431 kts 197°
2026-05-07 14:39 45.90389 -5.23122 35983 ft 433 kts 192°
2026-05-07 14:39 45.84482 -5.24572 35966 ft 434 kts 191°
2026-05-07 14:40 45.78521 -5.25988 35971 ft 434 kts 191°
2026-05-07 14:40 45.72564 -5.27461 35971 ft 435 kts 192°
2026-05-07 14:41 45.66602 -5.28968 35970 ft 435 kts 192°
2026-05-07 14:41 45.60630 -5.30483 35968 ft 436 kts 192°
2026-05-07 14:42 45.54699 -5.31985 35968 ft 436 kts 192°
2026-05-07 14:42 45.48725 -5.33494 35967 ft 436 kts 192°
2026-05-07 14:43 45.42755 -5.34997 35957 ft 436 kts 192°
2026-05-07 14:43 45.36779 -5.36499 35961 ft 436 kts 192°
2026-05-07 14:44 45.30851 -5.37986 35960 ft 435 kts 192°
2026-05-07 14:44 45.24888 -5.39478 35953 ft 435 kts 192°
2026-05-07 14:45 45.18925 -5.40967 35944 ft 435 kts 192°
2026-05-07 14:45 45.12949 -5.42457 35961 ft 437 kts 192°
2026-05-07 14:46 45.06953 -5.43949 35956 ft 438 kts 192°
2026-05-07 14:46 45.00974 -5.45433 35948 ft 440 kts 192°
2026-05-07 14:47 44.94931 -5.46931 35948 ft 442 kts 192°
2026-05-07 14:47 44.88865 -5.48431 35944 ft 443 kts 192°
2026-05-07 14:48 44.82782 -5.49932 35934 ft 444 kts 192°
2026-05-07 14:48 44.76730 -5.51424 35939 ft 445 kts 192°
2026-05-07 14:49 44.70635 -5.52926 35933 ft 445 kts 192°
2026-05-07 14:49 44.64546 -5.54421 35934 ft 444 kts 192°
2026-05-07 14:50 44.58612 -5.56591 35932 ft 438 kts 205°
2026-05-07 14:50 44.53052 -5.60060 35929 ft 437 kts 206°
2026-05-07 14:51 44.47547 -5.63530 35917 ft 436 kts 206°
2026-05-07 14:51 44.42005 -5.66979 35928 ft 436 kts 206°
2026-05-07 14:52 44.36463 -5.70394 35917 ft 435 kts 206°
2026-05-07 14:52 44.30889 -5.73816 35944 ft 442 kts 206°
2026-05-07 14:53 44.25261 -5.77262 36115 ft 447 kts 206°
2026-05-07 14:53 44.22419 -5.78999 36311 ft 446 kts 206°
2026-05-07 14:53 44.19573 -5.80736 36563 ft 445 kts 206°
2026-05-07 14:54 44.16744 -5.82460 36806 ft 444 kts 206°
2026-05-07 14:54 44.13912 -5.84184 36977 ft 444 kts 206°
2026-05-07 14:54 44.11079 -5.85909 37146 ft 444 kts 206°
2026-05-07 14:54 44.08251 -5.87628 37348 ft 444 kts 206°
2026-05-07 14:55 44.05422 -5.89347 37531 ft 443 kts 206°
2026-05-07 14:55 44.02636 -5.91038 37681 ft 443 kts 206°
2026-05-07 14:55 43.99807 -5.92752 37859 ft 443 kts 206°
2026-05-07 14:55 43.96982 -5.94464 38037 ft 443 kts 206°
2026-05-07 14:56 43.94165 -5.96167 38236 ft 442 kts 206°
2026-05-07 14:56 43.91348 -5.97870 38395 ft 442 kts 206°
2026-05-07 14:56 43.88530 -5.99571 38519 ft 442 kts 206°
2026-05-07 14:56 43.85711 -6.01271 38616 ft 442 kts 206°
2026-05-07 14:57 43.80086 -6.04659 38722 ft 445 kts 206°
2026-05-07 14:57 43.77252 -6.06363 38830 ft 444 kts 205°
2026-05-07 14:57 43.74416 -6.08066 38867 ft 445 kts 205°
2026-05-07 14:58 43.68723 -6.11480 38888 ft 448 kts 206°
2026-05-07 14:58 43.62985 -6.14915 38873 ft 451 kts 206°
2026-05-07 14:59 43.57209 -6.18364 38889 ft 454 kts 206°
2026-05-07 14:59 43.51440 -6.21802 38889 ft 455 kts 206°
2026-05-07 15:00 43.45638 -6.25250 38856 ft 451 kts 206°
2026-05-07 15:00 43.39938 -6.28629 38865 ft 442 kts 206°
2026-05-07 15:01 43.34336 -6.31947 38864 ft 441 kts 205°
2026-05-07 15:01 43.28714 -6.35271 38858 ft 440 kts 205°
2026-05-07 15:02 43.23098 -6.38585 38858 ft 439 kts 206°
2026-05-07 15:02 43.17473 -6.41896 38861 ft 440 kts 206°
2026-05-07 15:03 43.11831 -6.45212 38859 ft 442 kts 206°
2026-05-07 15:03 43.06169 -6.48531 38853 ft 443 kts 206°
2026-05-07 15:04 43.00530 -6.51830 38847 ft 444 kts 206°
2026-05-07 15:04 42.94834 -6.55156 38851 ft 446 kts 206°
2026-05-07 15:05 42.89116 -6.58489 38831 ft 448 kts 206°
2026-05-07 15:05 42.83380 -6.61825 38848 ft 449 kts 206°
2026-05-07 15:06 42.77667 -6.65141 38835 ft 449 kts 206°
2026-05-07 15:06 42.71913 -6.68473 38827 ft 449 kts 206°
2026-05-07 15:07 42.66173 -6.71790 38823 ft 448 kts 206°
2026-05-07 15:07 42.60450 -6.75091 38830 ft 446 kts 206°
2026-05-07 15:08 42.54783 -6.78354 38831 ft 445 kts 206°
2026-05-07 15:08 42.49100 -6.81620 38839 ft 443 kts 206°
2026-05-07 15:09 42.43427 -6.84873 38841 ft 442 kts 206°
2026-05-07 15:09 42.37772 -6.88110 38830 ft 440 kts 206°
2026-05-07 15:10 42.32171 -6.91310 38837 ft 439 kts 206°
2026-05-07 15:10 42.26544 -6.94519 38838 ft 439 kts 206°
2026-05-07 15:11 42.20930 -6.97715 38840 ft 438 kts 206°
2026-05-07 15:11 42.15319 -7.00902 38841 ft 437 kts 206°
2026-05-07 15:12 42.09748 -7.04061 38838 ft 437 kts 206°
2026-05-07 15:12 42.04139 -7.07235 38844 ft 437 kts 206°
2026-05-07 15:13 41.98534 -7.10403 38842 ft 437 kts 206°
2026-05-07 15:13 41.92930 -7.13564 38835 ft 437 kts 207°
2026-05-07 15:14 41.87366 -7.16697 38845 ft 436 kts 207°
2026-05-07 15:14 41.81766 -7.19850 38851 ft 437 kts 207°
2026-05-07 15:15 41.76157 -7.22994 38840 ft 437 kts 207°
2026-05-07 15:15 41.70381 -7.25607 38846 ft 439 kts 201°
2026-05-07 15:16 41.64494 -7.27781 38833 ft 438 kts 200°
2026-05-07 15:16 41.58680 -7.29931 38846 ft 435 kts 201°
2026-05-07 15:17 41.52869 -7.32134 38836 ft 433 kts 201°
2026-05-07 15:17 41.47101 -7.34344 38829 ft 430 kts 201°
2026-05-07 15:18 41.41355 -7.36549 38833 ft 429 kts 201°
2026-05-07 15:18 41.35672 -7.38726 38848 ft 427 kts 201°
2026-05-07 15:19 41.29967 -7.40906 38844 ft 426 kts 201°
2026-05-07 15:19 41.24275 -7.43077 38837 ft 426 kts 201°
2026-05-07 15:20 41.18570 -7.45250 38850 ft 426 kts 201°
2026-05-07 15:20 41.12890 -7.47409 38847 ft 429 kts 201°
2026-05-07 15:21 41.07199 -7.49575 38823 ft 415 kts 201°
2026-05-07 15:21 41.01712 -7.51640 38846 ft 410 kts 201°
2026-05-07 15:22 40.96187 -7.53732 38856 ft 416 kts 201°
2026-05-07 15:22 40.90580 -7.55851 38857 ft 421 kts 201°
2026-05-07 15:23 40.84945 -7.57974 38848 ft 426 kts 201°
2026-05-07 15:23 40.79207 -7.60131 38857 ft 431 kts 201°
2026-05-07 15:24 40.73412 -7.62304 38856 ft 434 kts 201°
2026-05-07 15:24 40.67580 -7.64487 38856 ft 437 kts 201°
2026-05-07 15:25 40.61782 -7.66652 38842 ft 434 kts 201°
2026-05-07 15:25 40.56031 -7.68793 38845 ft 426 kts 201°
2026-05-07 15:26 40.50342 -7.70913 38848 ft 424 kts 201°
2026-05-07 15:26 40.44676 -7.73022 38855 ft 423 kts 201°
2026-05-07 15:27 40.39057 -7.75110 38857 ft 422 kts 201°
2026-05-07 15:27 40.33394 -7.77208 38854 ft 424 kts 201°
2026-05-07 15:28 40.27753 -7.79436 38858 ft 424 kts 202°
2026-05-07 15:28 40.22036 -7.81533 38848 ft 428 kts 201°
2026-05-07 15:29 40.16290 -7.83575 38854 ft 428 kts 201°
2026-05-07 15:29 40.10581 -7.85645 38851 ft 429 kts 201°
2026-05-07 15:30 40.04828 -7.87755 38850 ft 430 kts 202°
2026-05-07 15:30 39.99070 -7.89870 38856 ft 430 kts 202°
2026-05-07 15:31 39.93303 -7.91983 38846 ft 430 kts 202°
2026-05-07 15:31 39.87587 -7.94073 38848 ft 429 kts 202°
2026-05-07 15:32 39.81846 -7.96170 38852 ft 428 kts 202°
2026-05-07 15:32 39.76121 -7.98258 38842 ft 427 kts 202°
2026-05-07 15:33 39.70386 -8.00231 38843 ft 426 kts 200°
2026-05-07 15:33 39.64641 -8.01906 38840 ft 426 kts 199°
2026-05-07 15:34 39.58871 -8.03575 38848 ft 424 kts 199°
2026-05-07 15:34 39.53131 -8.05274 38844 ft 423 kts 200°
2026-05-07 15:35 39.47410 -8.06984 38837 ft 422 kts 200°
2026-05-07 15:35 39.41697 -8.08692 38860 ft 421 kts 200°
2026-05-07 15:36 39.36018 -8.10387 38855 ft 422 kts 200°
2026-05-07 15:36 39.30294 -8.12091 38851 ft 423 kts 200°
2026-05-07 15:37 39.24566 -8.13794 38849 ft 423 kts 200°
2026-05-07 15:37 39.18827 -8.15498 38853 ft 423 kts 200°
2026-05-07 15:38 39.13117 -8.17193 38855 ft 424 kts 200°
2026-05-07 15:38 39.07369 -8.18914 38858 ft 423 kts 202°
2026-05-07 15:39 39.01827 -8.21270 38857 ft 418 kts 206°
2026-05-07 15:39 38.96355 -8.23796 38861 ft 418 kts 206°
2026-05-07 15:40 38.90916 -8.26274 38864 ft 417 kts 206°
2026-05-07 15:40 38.85443 -8.28728 38864 ft 416 kts 206°
2026-05-07 15:41 38.79984 -8.31158 38861 ft 415 kts 206°
2026-05-07 15:41 38.74544 -8.33575 38860 ft 413 kts 206°
2026-05-07 15:42 38.69131 -8.35976 38885 ft 410 kts 206°
2026-05-07 15:42 38.63783 -8.38346 38875 ft 409 kts 206°
2026-05-07 15:43 38.58424 -8.40717 38862 ft 406 kts 206°
2026-05-07 15:43 38.53097 -8.43071 38879 ft 404 kts 206°
2026-05-07 15:44 38.47796 -8.45410 38892 ft 402 kts 206°
2026-05-07 15:44 38.42553 -8.47720 38894 ft 401 kts 206°
2026-05-07 15:45 38.37284 -8.50040 38908 ft 400 kts 206°
2026-05-07 15:45 38.32022 -8.52354 38905 ft 400 kts 206°
2026-05-07 15:46 38.24119 -8.55703 38913 ft 403 kts 204°
2026-05-07 15:47 38.18708 -8.57663 38914 ft 405 kts 203°
2026-05-07 15:47 38.13283 -8.59608 38917 ft 406 kts 204°
2026-05-07 15:48 38.07849 -8.61586 38926 ft 407 kts 204°
2026-05-07 15:48 38.02441 -8.63572 38918 ft 408 kts 204°
2026-05-07 15:49 37.96985 -8.65578 38925 ft 409 kts 204°
2026-05-07 15:49 37.91515 -8.67587 38926 ft 410 kts 204°
2026-05-07 15:50 37.86038 -8.69594 38903 ft 410 kts 203°
2026-05-07 15:50 37.80599 -8.71566 38918 ft 409 kts 204°
2026-05-07 15:51 37.75135 -8.73561 38925 ft 409 kts 203°
2026-05-07 15:51 37.69681 -8.75554 38925 ft 408 kts 203°
2026-05-07 15:52 37.64241 -8.77537 38932 ft 406 kts 203°
2026-05-07 15:52 37.58817 -8.79510 38930 ft 404 kts 203°
2026-05-07 15:53 37.53455 -8.81458 38926 ft 403 kts 203°
2026-05-07 15:53 37.48075 -8.83410 38934 ft 402 kts 203°
2026-05-07 15:54 37.42711 -8.85353 38934 ft 400 kts 203°
2026-05-07 15:54 37.37362 -8.87289 38917 ft 400 kts 203°
2026-05-07 15:55 37.32021 -8.89218 38932 ft 399 kts 203°
2026-05-07 15:55 37.26715 -8.91132 38939 ft 400 kts 203°
2026-05-07 15:56 37.21365 -8.93060 38941 ft 401 kts 203°
2026-05-07 15:56 37.15998 -8.94990 38945 ft 402 kts 203°
2026-05-07 15:57 37.10615 -8.96923 38932 ft 403 kts 203°
2026-05-07 15:57 37.05255 -8.98844 38936 ft 404 kts 203°
2026-05-07 15:58 36.99853 -9.00778 38942 ft 405 kts 203°
2026-05-07 15:58 36.94433 -9.02716 38946 ft 405 kts 203°
2026-05-07 15:59 36.89003 -9.04654 38944 ft 406 kts 203°
2026-05-07 15:59 36.83610 -9.06575 38936 ft 406 kts 203°
2026-05-07 16:00 36.78184 -9.08506 38948 ft 405 kts 203°
2026-05-07 16:00 36.72761 -9.10432 38962 ft 405 kts 203°
2026-05-07 16:01 36.67356 -9.12350 38950 ft 403 kts 203°
2026-05-07 16:01 36.62015 -9.14242 38941 ft 401 kts 203°
2026-05-07 16:02 36.56663 -9.16135 38945 ft 399 kts 203°
2026-05-07 16:02 36.51338 -9.18017 38950 ft 397 kts 203°
2026-05-07 16:03 36.46027 -9.19885 38943 ft 396 kts 203°
2026-05-07 16:03 36.40737 -9.21742 38955 ft 395 kts 203°
2026-05-07 16:04 36.35487 -9.23591 38944 ft 394 kts 203°
2026-05-07 16:04 36.30205 -9.25450 38954 ft 395 kts 203°
2026-05-07 16:05 36.24913 -9.27310 38955 ft 396 kts 203°
2026-05-07 16:05 36.19603 -9.29173 38956 ft 397 kts 203°
2026-05-07 16:06 36.14271 -9.31041 38957 ft 399 kts 203°
2026-05-07 16:06 36.08963 -9.32901 38955 ft 399 kts 203°
2026-05-07 16:07 36.03614 -9.34775 38954 ft 400 kts 202°
2026-05-07 16:07 35.98255 -9.36637 38955 ft 401 kts 202°
2026-05-07 16:08 35.92648 -9.37571 38952 ft 412 kts 191°
2026-05-07 16:08 35.86955 -9.37921 38931 ft 412 kts 191°
2026-05-07 16:09 35.81248 -9.38290 38948 ft 410 kts 191°
2026-05-07 16:09 35.75572 -9.38684 38959 ft 408 kts 191°
2026-05-07 16:10 35.69916 -9.39084 38960 ft 406 kts 191°
2026-05-07 16:10 35.64319 -9.39480 38954 ft 405 kts 191°
2026-05-07 16:11 35.58747 -9.40108 38960 ft 402 kts 194°
2026-05-07 16:11 35.53137 -9.40532 38960 ft 405 kts 191°
2026-05-07 16:12 35.47515 -9.40836 38964 ft 404 kts 191°
2026-05-07 16:12 35.41893 -9.41183 38962 ft 404 kts 192°
2026-05-07 16:13 35.36276 -9.41568 38949 ft 404 kts 192°
2026-05-07 16:13 35.30655 -9.41968 38959 ft 405 kts 192°
2026-05-07 16:14 35.25054 -9.42370 38968 ft 407 kts 192°
2026-05-07 16:14 35.19394 -9.42776 38972 ft 408 kts 192°
2026-05-07 16:15 35.13713 -9.43182 38966 ft 410 kts 192°
2026-05-07 16:15 35.08016 -9.43588 38959 ft 411 kts 192°
2026-05-07 16:16 35.02342 -9.43992 38969 ft 412 kts 192°
2026-05-07 16:16 34.96620 -9.44399 38969 ft 412 kts 192°
2026-05-07 16:17 34.90884 -9.44805 38968 ft 413 kts 192°
2026-05-07 16:17 34.85148 -9.45212 38955 ft 413 kts 191°
2026-05-07 16:18 34.79420 -9.45616 38962 ft 412 kts 191°
2026-05-07 16:18 34.73743 -9.46017 38966 ft 411 kts 191°
2026-05-07 16:19 34.68040 -9.46419 38965 ft 410 kts 191°
2026-05-07 16:19 34.62348 -9.46821 38943 ft 409 kts 191°
2026-05-07 16:20 34.56673 -9.47220 38960 ft 408 kts 191°
2026-05-07 16:20 34.51009 -9.47619 38967 ft 407 kts 191°
2026-05-07 16:21 34.45387 -9.48014 38972 ft 407 kts 191°
2026-05-07 16:21 34.39728 -9.48411 38970 ft 407 kts 191°
2026-05-07 16:22 34.34063 -9.48808 38955 ft 408 kts 191°
2026-05-07 16:22 34.28396 -9.49205 38967 ft 408 kts 191°
2026-05-07 16:23 34.22718 -9.49602 38970 ft 409 kts 191°
2026-05-07 16:23 34.17054 -9.49998 38968 ft 411 kts 191°
2026-05-07 16:24 34.11343 -9.50396 38966 ft 412 kts 191°
2026-05-07 16:24 34.05605 -9.50795 38956 ft 413 kts 191°
2026-05-07 16:25 33.99852 -9.51194 38967 ft 415 kts 191°
2026-05-07 16:25 33.94077 -9.51585 38963 ft 416 kts 190°
2026-05-07 16:26 33.88322 -9.51973 38965 ft 418 kts 191°
2026-05-07 16:26 33.82519 -9.52375 38950 ft 417 kts 191°
2026-05-07 16:27 33.76761 -9.52770 38945 ft 411 kts 191°
2026-05-07 16:27 33.71074 -9.53161 38952 ft 408 kts 191°
2026-05-07 16:28 33.65426 -9.53551 38956 ft 405 kts 191°
2026-05-07 16:28 33.59848 -9.53937 38962 ft 404 kts 191°
2026-05-07 16:29 33.54203 -9.54330 38960 ft 409 kts 191°
2026-05-07 16:29 33.48483 -9.54727 38970 ft 415 kts 191°
2026-05-07 16:30 33.42692 -9.55125 38964 ft 419 kts 191°
2026-05-07 16:30 33.36889 -9.55521 38963 ft 422 kts 191°
2026-05-07 16:31 33.31026 -9.55918 38920 ft 420 kts 191°
2026-05-07 16:31 33.25246 -9.56306 38948 ft 414 kts 191°
2026-05-07 16:32 33.19502 -9.56698 38957 ft 413 kts 191°
2026-05-07 16:32 33.13808 -9.57088 38954 ft 412 kts 191°
2026-05-07 16:33 33.08085 -9.57478 38958 ft 412 kts 191°
2026-05-07 16:33 33.02349 -9.57869 38958 ft 413 kts 191°
2026-05-07 16:34 32.96605 -9.58259 38958 ft 414 kts 191°
2026-05-07 16:34 32.90848 -9.58650 38958 ft 415 kts 191°
2026-05-07 16:35 32.85117 -9.59037 38954 ft 415 kts 191°
2026-05-07 16:35 32.79366 -9.59423 38850 ft 410 kts 191°
2026-05-07 16:35 32.76534 -9.59602 38369 ft 407 kts 191°
2026-05-07 16:36 32.73694 -9.59782 37601 ft 411 kts 190°
2026-05-07 16:36 32.70836 -9.59969 36958 ft 412 kts 190°
2026-05-07 16:36 32.67983 -9.60159 36521 ft 409 kts 190°
2026-05-07 16:36 32.65157 -9.60347 36151 ft 404 kts 190°
2026-05-07 16:37 32.62361 -9.60534 35792 ft 400 kts 190°
2026-05-07 16:37 32.59648 -9.60715 35554 ft 392 kts 190°
2026-05-07 16:37 32.56946 -9.60894 35296 ft 387 kts 190°
2026-05-07 16:37 32.54257 -9.61076 35066 ft 390 kts 190°
2026-05-07 16:38 32.51531 -9.61266 34813 ft 395 kts 190°
2026-05-07 16:38 32.48773 -9.61458 34580 ft 397 kts 190°
2026-05-07 16:38 32.46026 -9.61643 34336 ft 394 kts 190°
2026-05-07 16:38 32.43301 -9.61824 34097 ft 391 kts 190°
2026-05-07 16:39 32.40598 -9.62002 33846 ft 388 kts 190°
2026-05-07 16:39 32.37915 -9.62180 33571 ft 385 kts 190°
2026-05-07 16:39 32.35281 -9.62356 33320 ft 383 kts 190°
2026-05-07 16:39 32.32633 -9.62532 33051 ft 380 kts 190°
2026-05-07 16:40 32.30000 -9.62709 32788 ft 378 kts 190°
2026-05-07 16:40 32.27375 -9.62881 32526 ft 377 kts 190°
2026-05-07 16:40 32.24767 -9.63050 32240 ft 375 kts 190°
2026-05-07 16:40 32.22167 -9.63220 31985 ft 373 kts 190°
2026-05-07 16:41 32.19581 -9.63392 31739 ft 372 kts 190°
2026-05-07 16:41 32.17005 -9.63564 31488 ft 369 kts 190°
2026-05-07 16:41 32.14467 -9.63731 31225 ft 362 kts 190°
2026-05-07 16:41 32.11954 -9.63898 30988 ft 362 kts 190°
2026-05-07 16:42 32.09429 -9.64069 30753 ft 365 kts 190°
2026-05-07 16:42 32.06922 -9.64239 30524 ft 366 kts 189°
2026-05-07 16:42 32.04386 -9.64409 30284 ft 364 kts 189°
2026-05-07 16:42 32.01865 -9.64576 30047 ft 362 kts 189°
2026-05-07 16:43 31.99363 -9.64742 29788 ft 360 kts 189°
2026-05-07 16:43 31.96866 -9.64907 29473 ft 358 kts 189°
2026-05-07 16:43 31.94384 -9.65072 29202 ft 357 kts 189°
2026-05-07 16:43 31.91911 -9.65236 28933 ft 356 kts 189°
2026-05-07 16:44 31.89444 -9.65400 28667 ft 354 kts 189°
2026-05-07 16:44 31.87019 -9.65562 28403 ft 353 kts 189°
2026-05-07 16:44 31.84569 -9.65724 28125 ft 352 kts 189°
2026-05-07 16:44 31.82155 -9.65882 27688 ft 345 kts 190°
2026-05-07 16:45 31.79772 -9.66038 27147 ft 341 kts 190°
2026-05-07 16:45 31.77419 -9.66193 26621 ft 336 kts 190°
2026-05-07 16:45 31.75097 -9.66346 26101 ft 332 kts 190°
2026-05-07 16:45 31.72807 -9.66498 25605 ft 328 kts 190°
2026-05-07 16:46 31.70565 -9.66645 25349 ft 318 kts 190°
2026-05-07 16:46 31.68339 -9.66795 25121 ft 324 kts 190°
2026-05-07 16:46 31.66086 -9.66952 24915 ft 333 kts 190°
2026-05-07 16:46 31.63761 -9.67111 24687 ft 334 kts 189°
2026-05-07 16:47 31.61456 -9.67263 24452 ft 330 kts 189°
2026-05-07 16:47 31.59175 -9.67407 24212 ft 327 kts 189°
2026-05-07 16:47 31.56915 -9.67552 23983 ft 324 kts 189°
2026-05-07 16:47 31.54672 -9.67700 23757 ft 322 kts 190°
2026-05-07 16:48 31.52444 -9.67850 23537 ft 320 kts 190°
2026-05-07 16:48 31.50224 -9.68003 23271 ft 319 kts 190°
2026-05-07 16:48 31.48007 -9.68155 23012 ft 319 kts 190°
2026-05-07 16:48 31.45793 -9.68301 22759 ft 319 kts 189°
2026-05-07 16:49 31.43609 -9.68439 22494 ft 319 kts 189°
2026-05-07 16:49 31.41393 -9.68574 22214 ft 320 kts 187°
2026-05-07 16:49 31.39146 -9.68428 21971 ft 328 kts 177°
2026-05-07 16:49 31.36901 -9.67863 21719 ft 330 kts 173°
2026-05-07 16:50 31.34679 -9.67212 21459 ft 329 kts 173°
2026-05-07 16:50 31.32467 -9.66555 21210 ft 328 kts 173°
2026-05-07 16:50 31.30255 -9.65906 20964 ft 327 kts 173°
2026-05-07 16:50 31.28050 -9.65270 20712 ft 326 kts 173°
2026-05-07 16:51 31.25847 -9.64642 20469 ft 325 kts 173°
2026-05-07 16:51 31.23652 -9.64021 20223 ft 324 kts 173°
2026-05-07 16:51 31.21462 -9.63407 19984 ft 323 kts 173°
2026-05-07 16:51 31.19308 -9.62805 19757 ft 322 kts 173°
2026-05-07 16:52 31.17105 -9.62192 19535 ft 328 kts 173°
2026-05-07 16:52 31.14890 -9.61577 19277 ft 326 kts 173°
2026-05-07 16:52 31.12687 -9.60965 19038 ft 323 kts 173°
2026-05-07 16:52 31.10531 -9.60361 18790 ft 315 kts 173°
2026-05-07 16:53 31.08422 -9.59767 18545 ft 308 kts 173°
2026-05-07 16:53 31.06350 -9.59184 18332 ft 308 kts 173°
2026-05-07 16:53 31.04245 -9.58601 18103 ft 314 kts 173°
2026-05-07 16:53 31.02119 -9.57997 17871 ft 313 kts 173°
2026-05-07 16:54 31.00049 -9.57397 17589 ft 309 kts 173°
2026-05-07 16:54 30.97967 -9.56796 17279 ft 306 kts 172°
2026-05-07 16:54 30.95905 -9.56203 16979 ft 304 kts 172°
2026-05-07 16:54 30.93857 -9.55619 16670 ft 302 kts 172°
2026-05-07 16:55 30.91820 -9.55039 16365 ft 300 kts 172°
2026-05-07 16:55 30.89795 -9.54465 16073 ft 298 kts 172°
2026-05-07 16:55 30.88463 -9.54088 15858 ft 297 kts 172°
2026-05-07 16:55 30.85780 -9.53312 15415 ft 297 kts 171°
2026-05-07 16:56 30.84455 -9.52893 15187 ft 299 kts 169°
2026-05-07 16:56 30.81827 -9.51924 14801 ft 299 kts 165°
2026-05-07 16:56 30.77855 -9.50879 14256 ft 290 kts 174°
2026-05-07 16:57 30.75876 -9.50452 13968 ft 288 kts 171°
2026-05-07 16:57 30.73921 -9.49947 13674 ft 287 kts 170°
2026-05-07 16:57 30.72635 -9.49597 13467 ft 287 kts 169°
2026-05-07 16:57 30.70687 -9.49076 13121 ft 286 kts 172°
2026-05-07 16:58 30.68791 -9.48358 12810 ft 293 kts 151°
2026-05-07 16:58 30.67318 -9.46703 12500 ft 302 kts 125°
2026-05-07 16:58 30.66299 -9.44568 12250 ft 301 kts 119°
2026-05-07 16:58 30.65095 -9.41724 12103 ft 290 kts 118°
2026-05-07 16:59 30.64508 -9.40309 11994 ft 289 kts 118°
2026-05-07 16:59 30.63621 -9.38187 11742 ft 294 kts 118°
2026-05-07 16:59 30.62717 -9.36029 11519 ft 300 kts 118°
2026-05-07 16:59 30.61801 -9.33840 11303 ft 304 kts 118°
2026-05-07 17:00 30.60889 -9.31653 11063 ft 304 kts 118°
2026-05-07 17:00 30.59971 -9.29464 10801 ft 300 kts 118°
2026-05-07 17:00 30.59072 -9.27305 10587 ft 294 kts 117°
2026-05-07 17:00 30.58201 -9.25176 10364 ft 291 kts 118°
2026-05-07 17:01 30.57342 -9.23056 10140 ft 288 kts 117°
2026-05-07 17:01 30.56481 -9.20967 9916 ft 286 kts 117°
2026-05-07 17:01 30.55616 -9.18904 9683 ft 283 kts 117°
2026-05-07 17:01 30.54754 -9.16867 9432 ft 280 kts 117°
2026-05-07 17:02 30.53810 -9.14918 9128 ft 274 kts 132°
2026-05-07 17:02 30.52520 -9.13332 8941 ft 268 kts 137°
2026-05-07 17:02 30.51222 -9.11832 8695 ft 266 kts 137°
2026-05-07 17:02 30.49892 -9.10361 8433 ft 262 kts 144°
2026-05-07 17:03 30.48254 -9.09561 7980 ft 259 kts 177°
2026-05-07 17:03 30.46501 -9.09976 7446 ft 262 kts 206°
2026-05-07 17:03 30.44947 -9.11108 7025 ft 266 kts 213°
2026-05-07 17:03 30.43244 -9.11917 6658 ft 269 kts 180°
2026-05-07 17:04 30.41424 -9.11476 6360 ft 270 kts 158°
2026-05-07 17:04 30.39662 -9.10852 6282 ft 258 kts 167°
2026-05-07 17:04 30.37986 -9.10391 6186 ft 244 kts 165°
2026-05-07 17:04 30.36392 -9.09914 6090 ft 229 kts 167°
2026-05-07 17:05 30.34863 -9.09612 5976 ft 216 kts 174°
2026-05-07 17:05 30.33420 -9.09776 5791 ft 206 kts 202°
2026-05-07 17:05 30.32248 -9.10681 5472 ft 204 kts 229°
2026-05-07 17:05 30.31545 -9.12075 5176 ft 200 kts 253°
2026-05-07 17:06 30.31397 -9.13655 5077 ft 199 kts 273°
2026-05-07 17:06 30.31472 -9.15273 5038 ft 203 kts 272°
2026-05-07 17:06 30.31548 -9.16976 4464 ft 217 kts 272°
2026-05-07 17:06 30.31637 -9.18720 3921 ft 217 kts 274°
2026-05-07 17:07 30.31753 -9.20414 3462 ft 212 kts 271°
2026-05-07 17:07 30.31818 -9.22074 3169 ft 200 kts 269°
2026-05-07 17:07 30.31856 -9.23643 2893 ft 190 kts 269°
2026-05-07 17:07 30.31888 -9.25125 2649 ft 178 kts 269°
2026-05-07 17:08 30.31919 -9.26517 2426 ft 169 kts 270°
2026-05-07 17:08 30.31949 -9.27850 2204 ft 162 kts 270°
2026-05-07 17:08 30.31978 -9.29108 2009 ft 155 kts 269°
2026-05-07 17:08 30.32006 -9.30374 1801 ft 158 kts 268°
2026-05-07 17:09 30.32036 -9.31625 1585 ft 154 kts 268°
2026-05-07 17:09 30.32064 -9.32898 1384 ft 162 kts 270°
2026-05-07 17:09 30.32097 -9.34188 1167 ft 154 kts 267°
2026-05-07 17:09 30.32124 -9.35337 978 ft 135 kts 265°
2026-05-07 17:10 30.32146 -9.36370 814 ft 126 kts 264°
2026-05-07 17:10 30.32169 -9.37407 649 ft 131 kts 267°
2026-05-07 17:10 30.32207 -9.38446 478 ft 125 kts 265°
2026-05-07 17:10 30.32214 -9.39444 286 ft 124 kts 269°
2026-05-07 17:11 30.32250 -9.40409 230 ft 118 kts 278°
2026-05-07 17:11 30.32247 -9.41238 230 ft 77 kts 271°
2026-05-07 17:11 30.32274 -9.41734 230 ft 38 kts 283°
2026-05-07 17:11 30.32361 -9.41987 230 ft 22 kts 301°
2026-05-07 17:12 30.32423 -9.42105 230 ft 13 kts 301°
2026-05-07 17:12 30.32481 -9.42185 230 ft 14 kts 333°
2026-05-07 17:12 30.32602 -9.42202 232 ft 19 kts
2026-05-07 17:12 30.32728 -9.42191 230 ft 18 kts
2026-05-07 17:13 30.32831 -9.42138 230 ft 17 kts 71°
2026-05-07 17:13 30.32831 -9.42002 230 ft 17 kts 92°
2026-05-07 17:13 30.32828 -9.41871 230 ft 16 kts 92°
2026-05-07 17:13 30.32825 -9.41745 230 ft 15 kts 92°
2026-05-07 17:14 30.32821 -9.41624 230 ft 15 kts 92°
2026-05-07 17:14 30.32817 -9.41510 230 ft 10 kts 92°
2026-05-07 17:14 30.32817 -9.41496 230 ft 1 kts 91°
2026-05-07 17:14 30.32830 -9.41457 232 ft 6 kts 45°
2026-05-07 17:15 30.32873 -9.41444 232 ft 6 kts
2026-05-07 17:15 30.32888 -9.41444 230 ft 1 kts
2026-05-07 17:15 30.32893 -9.41443 230 ft 0 kts
2026-05-07 17:22 30.32893 -9.41444 230 ft 0 kts